Regional Weather Roundup
Issued by NWS

Home | Current Version | Previous Version | Graphics & Text | Print | Product List | Glossary On
Versions: 1 2 3 4 5 6 7 8 9 10 11 12 13 14 15 16 17 18 19 20 21 22 23 24 25 26 27 28 29 30 31 32 33 34 35 36 37 38 39 40 41 42 43 44 45 46 47 48 49 50
000
ASUS43 KDTX 222210
RWRMI
MICHIGAN HOURLY REGIONAL WEATHER ROUNDUP
NATIONAL WEATHER SERVICE DETROIT/PONTIAC MI
600 PM EDT FRI AUG 22 2014

NOTE: "FAIR" INDICATES FEW OR NO CLOUDS BELOW 12,000 FEET WITH NO
SIGNIFICANT WEATHER AND/OR OBSTRUCTION TO VISIBILITY.

MIZ047>049-052>055-059>063-066>070-074>076-081>083-222300-
SOUTHEAST LOWER MICHIGAN

CITY           SKY/WX    TMP DP  RH WIND       PRES   REMARKS
ADRIAN         PTSUNNY   81  71  71 NE3       29.97S
ALMA           CLOUDY    77  69  74 NE7       29.99S
ANN ARBOR      CLOUDY    81  69  67 W7        29.96F
BAD AXE        SUNNY     74  65  73 E6        30.02R
CARO           CLOUDY    75  67  75 N5        29.99S
DETROIT CITY   CLOUDY    82  67  60 E7        29.97R
DETROIT        PTSUNNY   82  68  62 E8        29.97R
FLINT          PTSUNNY   82  67  60 NE9       29.98S
GROSSE ILE     CLOUDY    79  72  78 SE3       29.95S
HILLSDALE      PTSUNNY   81  73  76 NW5       29.99S
HOWELL         MOSUNNY   80  70  71 NE5       29.98S

CITY           SKY/WX    TMP DP  RH WIND       PRES   REMARKS
JACKSON        MOSUNNY   81  71  71 CALM      29.98S
LAMBERTVILLE   CLOUDY    81  72  74 CALM      29.96F
LANSING        CLOUDY    79  70  74 NE7       29.98S
LAPEER         CLOUDY    76  65  68 NE5       30.00R
MASON          CLOUDY    78  70  76 CALM      29.98R
MONROE         PTSUNNY   81  72  74 SE5       29.94F
MT. CLEMENS    PTSUNNY   78  66  65 NE12      29.96R
PONTIAC        CLOUDY    79  67  66 NE7       29.98R
PORT HOPE        N/A     64  62  93 NE3       30.02R
PORT HURON     CLOUDY    72  63  73 NE7       29.99S
TRI CITIES     CLOUDY    75  63  66 NE8       30.00S
TROY           CLOUDY    81  68  63 N5        29.99S
SAGINAW HB     CLOUDY    73  66  78 NE7       30.00R
$$
MIZ043>046-050>051-056>058-064>065-071>073-077>080-222300-
SOUTHWEST LOWER MICHIGAN

CITY           SKY/WX    TMP DP  RH WIND       PRES   REMARKS
BATTLE CREEK   CLOUDY    80  71  74 NE8       29.98S
BENTON HARBOR  MOSUNNY   82  72  71 SE5       29.94R
BIG RAPIDS     CLOUDY    76  71  84 E7        29.99R
COLDWATER      CLOUDY    82  73  74 NE7       29.97S
FREMONT        FAIR      81  70  69 E5        29.96F
HOLLAND        PTSUNNY   82  73  74 CALM      29.96S
GRAND RAPIDS   PTSUNNY   80  76  87 E6        29.97S
IONIA          CLOUDY    77  70  79 E5        29.97S
KALAMAZOO      MOSUNNY   84  72  67 VRB5      29.96S
LUDINGTON      SUNNY     81  72  74 E5        29.97S
MARSHALL       CLOUDY    78  71  79 MISG      29.97S
MOUNT PLEASANT CLOUDY    77  67  72 E3        29.99S
MUSKEGON       PTSUNNY   81  71  71 SW6       29.96R
SOUTH HAVEN    MOSUNNY   82  75  77 NE5       29.94S
$$
MIZ016>042-222300-
NORTHERN LOWER MICHIGAN

CITY           SKY/WX    TMP DP  RH WIND       PRES   REMARKS
ALPENA         MOSUNNY   73  65  75 SE8       30.02R
BEAVER ISLAND  SUNNY     73  65  77 E5        30.02R
BELLAIRE       CLOUDY    79  67  64 CALM      29.98S
CADILLAC       CLOUDY    76  68  78 E6        30.01S
CHARLEVOIX     SUNNY     78  68  72 N6        30.02S
FRANKFORT      CLOUDY    82  69  64 NE6       29.97S
GAYLORD        CLOUDY    76  63  64 E6        30.03R
GRAYLING       CLOUDY    77  65  67 NE3       30.02S
HARBOR SPRINGS SUNNY     78  64  62 E6        30.00S
HOUGHTON LAKE  CLOUDY    76  64  66 W3        30.02R
MANISTEE       SUNNY     79  70  73 E6        29.98S
OSCODA         SUNNY     70  64  81 E6        30.02R
PELLSTON       SUNNY     77  65  66 NE10      30.01S
ROGERS CITY    PTSUNNY   70  66  87 E5        30.04R
TRAVERSE CITY  CLOUDY    78  67  68 N3        29.97R
$$
MIZ007>008-015-222300-
EASTERN UPPER MICHIGAN

CITY           SKY/WX    TMP DP  RH WIND       PRES   REMARKS
KINROSS        MOSUNNY   77  64  65 SE6       30.02S
MACKINAC ISLAN CLOUDY    70  64  81 E8        30.02S
NEWBERRY       CLOUDY    73  65  76 E3        30.02R
S. S. MARIE    SUNNY     78  64  61 SE5       30.01R
MUNISING         N/A     75  66  73 NW3       29.98S
$$
MIZ004>006-011>014-085-222300-
CENTRAL UPPER MICHIGAN

CITY           SKY/WX    TMP DP  RH WIND       PRES   REMARKS
MANISTIQUE     CLOUDY    74  66  77 SE10      30.00S
ESCANABA       MOSUNNY   72  66  83 SE8       29.98F
MENOMINEE      CLOUDY    73  66  78 E9        29.96S
SAWYER-GWINN   CLOUDY    73  68  83 NE5       30.01R
$$
MIZ001>003-009>011-084-222300-
WESTERN UPPER MICHIGAN

CITY           SKY/WX    TMP DP  RH WIND       PRES   REMARKS
IRON MOUNTAIN  CLOUDY    75  69  81 SE5       29.98S
HOUGHTON       CLOUDY    68  60  75 E10       30.00S
COPPER HARBOR    N/A     58  54  86 CALM      30.02R
IRONWOOD       CLOUDY    64  63  94 NW3       29.97S
$$

ABBREVIATIONS USED IN REMARKS
   TC - TEMPERATURE IN CELSIUS
  WCI - WIND CHILL INDEX
   HX - HEAT INDEX
  VSB - VISIBILITY



USA.gov is the U.S. government's official web portal to all federal, state and local government web resources and services.